Please be sure to check the latest weather conditions by clicking the link and viewing our local weather information!

Check Weather

Welcome to Lakeway Airpark (3R9)

FromTheAir

We’re a community airpark nestled within the town of Lakeway, Texas (17 miles northwest of downtown Austin).

Lakeway Airpark, Inc. was formed by Lakeway residents and interested parties to own and manage Lakeway Airpark (3R9).

The Airpark is a privately owned not for profit public use airport for residents and guests of Lakeway. No public funds are used and the airport is supported by fees and fuel sales at the airport.

Lakeway Airpark is an unmanned facility open for use from Sunrise to Sunset seven days a week. Takeoffs and landings are not permitted at night, between Sunset and Sunrise, by City Ordinance.

Quick Weather Info

Available data for KAUS from the past 2 hours
AUSTIN, TX
Metar
KAUS 242153Z 13018G23KT 10SM FEW046 SCT050 BKN250 32/21 A2993 RMK AO2 SLP123 T03170206

21:53 UTC

Wind: 130° 18kt

Visibility: 10 SM

Sky: FEW 4600 ft

Temp: 32 deg C / 89.6 deg F

Dewpoint: 21 deg C / 69.8 deg F

Pressure: 29.93 inHg

TAF
KAUS 241808Z 2418/2524 15017G27KT P6SM VCSH BKN040 BKN060 BKN250 FM250400 16011KT P6SM BKN019 FM251500 17013KT P6SM OVC025 FM251700 16014KT P6SM SCT040